Find Starlink 3178

NORAD ID: 51467 Int'l Des: 2022-010 Owner: SPXS Country: US Constellation: starlink operational
LEOCIRCULAR

リアルタイム位置

3D地球を読み込み中...

Starlink 3178について

説明を読み込み中...

次回通過

Passes for default location (London). Set your location on the main map for personalized predictions.

高度履歴

Loading altitude history...

軌道要素

1 51467U 22010M 26121.19889853 .00003456 00000-0 23506-3 0 9998
2 51467 53.2183 43.3949 0001395 90.3443 269.7709 15.08851000234445
Epoch: May 1, 2026 • Age: 13 hours

現在のステータス

高度 539.6 km
速度 7.60 km/s
衛星直下点 14.27°N, 71.31°W
打ち上げ日 Feb 3, 2022
運用期間 4.2 years
タイプ internet

技術仕様

分類 Payload
質量 297.00 kg
乾燥質量 275.00 kg
総質量 297.00 kg
長さ 0.20 m
直径 2.80 m
スパン 9.00 m
形状 Box + pan
製造者 SPXS
バスタイプ Starlink
フェーズステータス In Orbit
所有者/国 SPXS/US

Most Searched